[[{"header":{"parameterUnit":"m.s-1","parameterCategory":1,"la1":30.2992,"la2":30.254,"lo1":-89.0895,"lo2":-89.0443,"dy":0.0025,"dx":0.0025,"nx":19,"ny":19,"refTime":"2026-03-09T21:00:00:Z","depth":0,"parameterNumber":2,"parameterNumberName":"U-component_of_WINDS"},"data":[0,0,0,-0.2797,-0.2796,-0.2775,-0.2775,-0.2742,-0.2742,0,0,0,0,0,0,0,0,0,0,0,-0.28,-0.28,-0.2797,-0.2796,-0.2775,-0.2775,-0.2742,-0.2742,0,0,0,0,0,0,0,0,0,0,0,-0.2801,-0.28,-0.28,-0.2796,-0.2775,-0.2775,-0.2742,-0.276,0,0,0,0,0,0,0,0,0,0,-0.2781,-0.2783,-0.28,-0.28,-0.2796,-0.2775,-0.2775,-0.2761,-0.2759,-0.2749,0,-0.2742,0,-0.2741,-0.2739,-0.2739,0,0,0,-0.2797,-0.2784,-0.2781,-0.28,-0.2796,-0.2775,-0.2785,-0.276,-0.2757,-0.2747,-0.2741,-0.274,-0.2741,-0.2739,-0.2739,-0.2683,-0.2682,0,0,-0.2799,-0.2795,-0.2783,-0.278,-0.2784,-0.2786,-0.2784,-0.2758,-0.2752,-0.2741,-0.2739,-0.274,-0.2739,-0.2739,-0.2683,-0.2682,0,0,0,-0.2801,-0.2796,-0.2793,-0.2781,-0.2777,-0.2785,-0.2783,-0.2753,-0.2752,-0.2739,-0.274,-0.2739,-0.2738,-0.2683,-0.2683,-0.2662,0,0,0,-0.2802,-0.2797,-0.2794,-0.2791,-0.2778,-0.2765,-0.2778,-0.2754,-0.2751,-0.274,-0.2739,-0.2738,-0.2684,-0.2683,-0.2664,-0.2653,0,0,0,-0.2803,-0.2797,-0.2794,-0.2791,-0.2782,-0.2766,-0.2764,-0.2754,-0.2752,-0.2739,-0.2738,-0.2684,-0.2683,-0.2665,-0.2655,-0.2636,0,0,0,-0.2802,-0.2776,-0.2793,-0.2764,-0.2782,-0.2754,-0.2764,-0.2743,-0.273,-0.2738,-0.2684,-0.2683,-0.2665,-0.2656,-0.2638,-0.2619,-0.2612,0,0,-0.2767,-0.2771,-0.2755,-0.277,-0.2737,-0.2757,-0.2722,-0.2713,-0.2715,-0.2693,-0.2692,-0.2663,-0.2655,-0.2637,-0.2572,-0.2566,0,0,0,-0.2742,-0.273,-0.2722,-0.271,-0.2703,-0.2696,-0.2693,-0.269,-0.2672,-0.2703,-0.2652,-0.2648,-0.2637,-0.2628,-0.2623,-0.2613,-0.2679,-0.2679,-0.2679,-0.2686,-0.269,-0.2662,-0.2664,-0.2652,-0.265,-0.264,-0.2635,-0.2642,-0.263,-0.2623,-0.2584,-0.2574,-0.257,-0.256,-0.2615,-0.2615,-0.2615,-0.2615,-0.2634,-0.2616,-0.2628,-0.2604,-0.2609,-0.2589,-0.2585,-0.2591,-0.2573,-0.259,-0.258,-0.2597,-0.2563,-0.2554,-0.2613,-0.2614,-0.2614,-0.2614,-0.2614,-0.2596,-0.2589,-0.2586,-0.2569,-0.2555,-0.2557,-0.2539,-0.2544,-0.2548,-0.2539,-0.2531,-0.2532,-0.2532,-0.2535,-0.2535,-0.2535,-0.2535,-0.2535,-0.2535,-0.2558,-0.2556,-0.254,-0.2531,-0.2524,-0.2514,-0.2512,-0.2504,-0.2497,-0.2502,-0.2502,-0.2509,-0.256,-0.2571,-0.2533,-0.2533,-0.2533,-0.2533,-0.2534,-0.2502,-0.2515,-0.2491,-0.2484,-0.2473,-0.2458,-0.2465,-0.2449,-0.2444,-0.2434,-0.2445,-0.2481,-0.2486,-0.249,-0.25,-0.2445,-0.2445,-0.2445,-0.2445,-0.2469,-0.2473,-0.2449,-0.2436,-0.2425,-0.2429,-0.24,-0.2397,-0.2397,-0.2393,-0.2402,-0.2416,-0.242,-0.2422,-0.2428,-0.2437,-0.2367,-0.2367,-0.2367,-0.2434,-0.2437,-0.2411,-0.2412,-0.2404,-0.2396,-0.2369,-0.2353,-0.2356,-0.2364,-0.239,-0.2394,-0.2416,-0.2423,-0.243,-0.2439,-0.2456,0,0]},{"header":{"parameterUnit":"m.s-1","parameterCategory":1,"la1":30.2992,"la2":30.254,"lo1":-89.0895,"lo2":-89.0443,"dy":0.0025,"dx":0.0025,"nx":19,"ny":19,"refTime":"2026-03-09T21:00:00:Z","depth":0,"parameterNumber":3,"parameterNumberName":"V-component_of_WINDS"},"data":[0,0,0,4.2927,4.293,4.309,4.309,4.3287,4.3289,0,0,0,0,0,0,0,0,0,0,0,4.2878,4.2879,4.2927,4.2931,4.3089,4.309,4.3287,4.3289,0,0,0,0,0,0,0,0,0,0,0,4.2877,4.2879,4.2881,4.2931,4.3089,4.309,4.3286,4.3168,0,0,0,0,0,0,0,0,0,0,4.3014,4.2968,4.2879,4.2881,4.2932,4.3089,4.309,4.3162,4.3175,4.3213,0,4.3248,0,4.3272,4.3302,4.3302,0,0,0,4.2931,4.2957,4.3002,4.2881,4.2934,4.3089,4.3018,4.317,4.3184,4.323,4.3251,4.3258,4.3275,4.3303,4.3304,4.3527,4.3528,0,0,4.2922,4.2905,4.2992,4.3012,4.299,4.3013,4.3023,4.3178,4.3199,4.3252,4.3263,4.3278,4.3304,4.3306,4.3526,4.3528,0,0,0,4.2897,4.2899,4.294,4.3003,4.3033,4.3017,4.3029,4.3192,4.3207,4.3265,4.3281,4.3305,4.3308,4.3525,4.3527,4.3564,0,0,0,4.2891,4.2884,4.2936,4.2927,4.303,4.3115,4.3039,4.3196,4.3214,4.328,4.3305,4.331,4.3524,4.3526,4.3561,4.3584,0,0,0,4.2868,4.2881,4.2904,4.2926,4.2994,4.3113,4.3137,4.3201,4.3224,4.3302,4.331,4.3523,4.3526,4.3558,4.3579,4.3641,0,0,0,4.2837,4.2932,4.2904,4.3015,4.2993,4.3135,4.3136,4.3242,4.3314,4.3306,4.3524,4.3527,4.3557,4.3576,4.3637,4.369,4.3711,0,0,4.2947,4.2944,4.3011,4.2991,4.3135,4.3112,4.3261,4.334,4.3361,4.347,4.3476,4.3562,4.3579,4.364,4.3827,4.3843,0,0,0,4.304,4.3088,4.313,4.3199,4.3265,4.3323,4.3383,4.3413,4.3507,4.3415,4.36,4.3611,4.3647,4.3673,4.3687,4.372,4.3538,4.3537,4.3537,4.3169,4.3195,4.3308,4.3353,4.342,4.3483,4.3539,4.359,4.3592,4.3635,4.3668,4.3779,4.3809,4.382,4.3854,4.3697,4.3697,4.3697,4.3697,4.3333,4.3406,4.3412,4.3524,4.3549,4.3642,4.3705,4.3705,4.3794,4.3756,4.3789,4.3746,4.3837,4.3868,4.37,4.37,4.3699,4.3699,4.3699,4.3422,4.3462,4.3499,4.3605,4.3683,4.3724,4.3811,4.383,4.3847,4.388,4.3918,4.3918,4.3921,4.3897,4.3897,4.3898,4.3898,4.3898,4.3899,4.3501,4.3542,4.3615,4.3695,4.3744,4.381,4.3875,4.3922,4.3979,4.3986,4.3986,4.3986,4.3841,4.3805,4.3905,4.3904,4.3903,4.3902,4.3902,4.366,4.3628,4.3741,4.3791,4.3887,4.3965,4.3988,4.4084,4.4125,4.4168,4.4161,4.405,4.4048,4.4037,4.4008,4.4154,4.4154,4.4154,4.4154,4.3737,4.3738,4.386,4.3938,4.4016,4.405,4.4177,4.4228,4.4275,4.4303,4.4284,4.4246,4.4234,4.4239,4.4224,4.4197,4.4388,4.4388,4.4388,4.3837,4.3848,4.3953,4.4003,4.4081,4.4146,4.4266,4.4354,4.44,4.4398,4.4325,4.4315,4.4254,4.4233,4.423,4.4206,4.4157,0,0]}]]